Time,TemperatureF,DewpointF,PressureIn,WindDirection,WindDirectionDegrees,WindSpeedMPH,WindSpeedGustMPH,Humidity,HourlyPrecipIn,Conditions,Clouds,dailyrainin,SolarRadiationWatts/m^2,SoftwareType,DateUTC
2013-02-27 00:01:00,41.0,38.0,30.33,ENE,67,2.0,4.0,90,-99.99,,,0.00,0.000000,,2013-02-27 08:01:00,
2013-02-27 00:11:00,41.0,38.0,30.33,ENE,67,2.0,4.0,90,-99.99,,,0.00,0.000000,,2013-02-27 08:11:00,
2013-02-27 00:41:00,40.0,38.0,30.34,NE,46,1.0,2.0,93,-99.99,,,0.00,0.000000,,2013-02-27 08:41:00,
2013-02-27 00:52:00,40.0,38.0,30.34,NE,46,1.0,2.0,93,-99.99,,,0.00,0.000000,,2013-02-27 08:52:00,
2013-02-27 01:01:00,40.0,38.0,30.34,NE,46,1.0,2.0,93,-99.99,,,0.00,0.000000,,2013-02-27 09:01:00,
2013-02-27 01:11:00,40.0,38.0,30.34,NE,46,1.0,2.0,93,-99.99,,,0.00,0.000000,,2013-02-27 09:11:00,
2013-02-27 01:41:00,40.0,38.0,30.34,ENE,65,1.0,2.0,94,-99.99,,,0.00,0.000000,,2013-02-27 09:41:00,
2013-02-27 01:52:00,40.0,38.0,30.34,ENE,65,1.0,2.0,94,-99.99,,,0.00,0.000000,,2013-02-27 09:52:00,
2013-02-27 02:01:00,40.0,38.0,30.34,ENE,65,1.0,2.0,94,-99.99,,,0.00,0.000000,,2013-02-27 10:01:00,
2013-02-27 02:12:00,40.0,38.0,30.34,ENE,65,1.0,2.0,94,-99.99,,,0.00,0.000000,,2013-02-27 10:12:00,
2013-02-27 02:42:00,40.0,38.0,30.34,NW,309,1.0,3.0,94,-99.99,,,-99.99,0.000000,,2013-02-27 10:42:00,
2013-02-27 02:52:00,40.0,38.0,30.34,NW,309,1.0,3.0,94,-99.99,,,-99.99,0.000000,,2013-02-27 10:52:00,
2013-02-27 03:01:00,40.0,38.0,30.34,NW,309,1.0,3.0,94,-99.99,,,-99.99,0.000000,,2013-02-27 11:01:00,
2013-02-27 03:11:00,40.0,38.0,30.34,NW,309,1.0,3.0,94,-99.99,,,-99.99,0.000000,,2013-02-27 11:11:00,
2013-02-27 03:41:00,40.0,39.0,30.33,East,81,2.0,4.0,94,-99.99,,,0.00,0.000000,,2013-02-27 11:41:00,
2013-02-27 03:52:00,40.0,39.0,30.33,East,81,2.0,4.0,94,-99.99,,,0.00,0.000000,,2013-02-27 11:52:00,
2013-02-27 04:02:00,40.0,39.0,30.33,East,81,2.0,4.0,94,-99.99,,,0.00,0.000000,,2013-02-27 12:02:00,
2013-02-27 04:12:00,40.0,39.0,30.33,East,81,2.0,4.0,94,-99.99,,,0.00,0.000000,,2013-02-27 12:12:00,
2013-02-27 04:42:00,40.0,39.0,30.34,SW,234,1.0,2.0,95,-99.99,,,0.00,0.000000,,2013-02-27 12:42:00,
2013-02-27 04:52:00,40.0,39.0,30.34,SW,234,1.0,2.0,95,-99.99,,,0.00,0.000000,,2013-02-27 12:52:00,
2013-02-27 05:02:00,40.0,39.0,30.34,SW,234,1.0,2.0,95,-99.99,,,0.00,0.000000,,2013-02-27 13:02:00,
2013-02-27 05:11:00,40.0,39.0,30.34,SW,234,1.0,2.0,95,-99.99,,,0.00,0.000000,,2013-02-27 13:11:00,
2013-02-27 05:42:00,40.0,38.0,30.34,NNW,336,0.0,2.0,95,-99.99,,,0.00,0.000000,,2013-02-27 13:42:00,
2013-02-27 05:52:00,40.0,38.0,30.34,NNW,336,0.0,2.0,95,-99.99,,,0.00,0.000000,,2013-02-27 13:52:00,
2013-02-27 06:02:00,40.0,38.0,30.34,NNW,336,0.0,2.0,95,-99.99,,,0.00,0.000000,,2013-02-27 14:02:00,
2013-02-27 06:11:00,40.0,38.0,30.34,NNW,336,0.0,2.0,95,-99.99,,,0.00,0.000000,,2013-02-27 14:11:00,
2013-02-27 06:42:00,39.0,38.0,30.36,East,81,2.0,4.0,95,-99.99,,,0.00,0.000000,,2013-02-27 14:42:00,
2013-02-27 06:52:00,39.0,38.0,30.36,East,81,2.0,4.0,95,-99.99,,,0.00,0.000000,,2013-02-27 14:52:00,
2013-02-27 07:02:00,39.0,38.0,30.36,East,81,2.0,4.0,95,-99.99,,,0.00,0.000000,,2013-02-27 15:02:00,
2013-02-27 07:12:00,39.0,38.0,30.36,East,81,2.0,4.0,95,-99.99,,,0.00,0.000000,,2013-02-27 15:12:00,
2013-02-27 07:42:00,39.0,38.0,30.37,ENE,77,2.0,4.0,96,-99.99,,,0.00,7.440000,,2013-02-27 15:42:00,
2013-02-27 07:52:00,39.0,38.0,30.37,ENE,77,2.0,4.0,96,-99.99,,,0.00,7.440000,,2013-02-27 15:52:00,
2013-02-27 08:01:00,39.0,38.0,30.37,ENE,77,2.0,4.0,96,-99.99,,,0.00,7.440000,,2013-02-27 16:01:00,
2013-02-27 08:11:00,39.0,38.0,30.37,ENE,77,2.0,4.0,96,-99.99,,,0.00,7.440000,,2013-02-27 16:11:00,
2013-02-27 08:42:00,40.0,39.0,30.38,East,88,2.0,5.0,95,-99.99,,,0.00,64.389999,,2013-02-27 16:42:00,
2013-02-27 08:52:00,40.0,39.0,30.38,East,88,2.0,5.0,95,-99.99,,,0.00,64.389999,,2013-02-27 16:52:00,
2013-02-27 09:01:00,40.0,39.0,30.38,East,88,2.0,5.0,95,-99.99,,,0.00,64.389999,,2013-02-27 17:01:00,
2013-02-27 09:11:00,40.0,39.0,30.38,East,88,2.0,5.0,95,-99.99,,,0.00,64.389999,,2013-02-27 17:11:00,
2013-02-27 09:41:00,43.0,39.0,30.38,East,85,4.0,7.0,88,-99.99,,,0.00,241.160004,,2013-02-27 17:41:00,
2013-02-27 09:52:00,43.0,39.0,30.38,East,85,4.0,7.0,88,-99.99,,,0.00,241.160004,,2013-02-27 17:52:00,
2013-02-27 10:01:00,43.0,39.0,30.38,East,85,4.0,7.0,88,-99.99,,,0.00,241.160004,,2013-02-27 18:01:00,
2013-02-27 10:11:00,43.0,39.0,30.38,East,85,4.0,7.0,88,-99.99,,,0.00,241.160004,,2013-02-27 18:11:00,
2013-02-27 10:42:00,46.0,40.0,30.36,East,80,6.0,9.0,80,-99.99,,,0.00,453.369995,,2013-02-27 18:42:00,
2013-02-27 10:52:00,46.0,40.0,30.36,East,80,6.0,9.0,80,-99.99,,,0.00,453.369995,,2013-02-27 18:52:00,
2013-02-27 11:01:00,46.0,40.0,30.36,East,80,6.0,9.0,80,-99.99,,,0.00,453.369995,,2013-02-27 19:01:00,
2013-02-27 11:11:00,46.0,40.0,30.36,East,80,6.0,9.0,80,-99.99,,,0.00,453.369995,,2013-02-27 19:11:00,
2013-02-27 11:32:00,47.0,40.0,30.34,East,83,6.0,10.0,75,-99.99,,,0.00,622.820007,,2013-02-27 19:32:00,
2013-02-27 11:42:00,47.0,40.0,30.34,East,83,6.0,10.0,75,-99.99,,,0.00,622.820007,,2013-02-27 19:42:00,
2013-02-27 11:52:00,47.0,40.0,30.34,East,83,6.0,10.0,75,-99.99,,,0.00,622.820007,,2013-02-27 19:52:00,
2013-02-27 12:01:00,47.0,40.0,30.34,East,83,6.0,10.0,75,-99.99,,,0.00,622.820007,,2013-02-27 20:01:00,
2013-02-27 12:11:00,47.0,40.0,30.34,East,83,6.0,10.0,75,-99.99,,,0.00,622.820007,,2013-02-27 20:11:00,
2013-02-27 12:42:00,49.0,40.0,30.36,ESE,123,2.0,5.0,71,-99.99,,,-99.99,255.449997,,2013-02-27 20:42:00,
2013-02-27 12:52:00,49.0,40.0,30.36,ESE,123,2.0,5.0,71,-99.99,,,-99.99,255.449997,,2013-02-27 20:52:00,
2013-02-27 13:01:00,49.0,40.0,30.36,ESE,123,2.0,5.0,71,-99.99,,,-99.99,255.449997,,2013-02-27 21:01:00,
2013-02-27 13:11:00,49.0,40.0,30.36,ESE,123,2.0,5.0,71,-99.99,,,-99.99,255.449997,,2013-02-27 21:11:00,
2013-02-27 13:42:00,50.0,39.0,30.35,East,93,4.0,5.0,67,-99.99,,,0.00,248.009995,,2013-02-27 21:42:00,
2013-02-27 13:52:00,50.0,39.0,30.35,East,93,4.0,5.0,67,-99.99,,,0.00,248.009995,,2013-02-27 21:52:00,
2013-02-27 14:01:00,50.0,39.0,30.35,East,93,4.0,5.0,67,-99.99,,,0.00,248.009995,,2013-02-27 22:01:00,
2013-02-27 14:11:00,50.0,39.0,30.35,East,93,4.0,5.0,67,-99.99,,,0.00,248.009995,,2013-02-27 22:11:00,
2013-02-27 14:41:00,50.0,42.0,30.35,West,266,6.0,12.0,73,-99.99,,,0.00,201.289993,,2013-02-27 22:41:00,
2013-02-27 14:52:00,50.0,42.0,30.35,West,266,6.0,12.0,73,-99.99,,,0.00,201.289993,,2013-02-27 22:52:00,
2013-02-27 15:01:00,50.0,42.0,30.35,West,266,6.0,12.0,73,-99.99,,,0.00,201.289993,,2013-02-27 23:01:00,
2013-02-27 15:11:00,50.0,42.0,30.35,West,266,6.0,12.0,73,-99.99,,,0.00,201.289993,,2013-02-27 23:11:00,
2013-02-27 15:32:00,50.0,41.0,30.33,West,259,5.0,10.0,70,-99.99,,,0.00,111.800003,,2013-02-27 23:32:00,
2013-02-27 15:42:00,50.0,41.0,30.33,West,259,5.0,10.0,70,-99.99,,,0.00,111.800003,,2013-02-27 23:42:00,
2013-02-27 15:53:00,50.0,41.0,30.33,West,259,5.0,10.0,70,-99.99,,,0.00,111.800003,,2013-02-27 23:53:00,
2013-02-27 16:01:00,50.0,41.0,30.33,West,259,5.0,10.0,70,-99.99,,,0.00,111.800003,,2013-02-28 00:01:00,
2013-02-27 16:11:00,50.0,41.0,30.33,West,259,5.0,10.0,70,-99.99,,,0.00,111.800003,,2013-02-28 00:11:00,
2013-02-27 16:32:00,50.0,42.0,30.33,West,275,3.0,5.0,73,-99.99,,,0.00,64.040001,,2013-02-28 00:32:00,
2013-02-27 16:42:00,50.0,42.0,30.33,West,275,3.0,5.0,73,-99.99,,,0.00,64.040001,,2013-02-28 00:42:00,
2013-02-27 16:52:00,50.0,42.0,30.33,West,275,3.0,5.0,73,-99.99,,,0.00,64.040001,,2013-02-28 00:52:00,
2013-02-27 17:01:00,50.0,42.0,30.33,West,275,3.0,5.0,73,-99.99,,,0.00,64.040001,,2013-02-28 01:01:00,
2013-02-27 17:11:00,50.0,42.0,30.33,West,275,3.0,5.0,73,-99.99,,,0.00,64.040001,,2013-02-28 01:11:00,
2013-02-27 17:41:00,49.0,42.0,30.34,West,279,3.0,5.0,75,-99.99,,,0.00,13.950000,,2013-02-28 01:41:00,
2013-02-27 17:52:00,49.0,42.0,30.34,West,279,3.0,5.0,75,-99.99,,,0.00,13.950000,,2013-02-28 01:52:00,
2013-02-27 18:01:00,49.0,42.0,30.34,West,279,3.0,5.0,75,-99.99,,,0.00,13.950000,,2013-02-28 02:01:00,
2013-02-27 18:11:00,49.0,42.0,30.34,West,279,3.0,5.0,75,-99.99,,,0.00,13.950000,,2013-02-28 02:11:00,
2013-02-27 19:01:00,48.0,42.0,30.34,SSE,150,2.0,7.0,80,-99.99,,,0.00,0.120000,,2013-02-28 03:01:00,
2013-02-27 19:11:00,48.0,42.0,30.34,SSE,150,2.0,7.0,80,-99.99,,,0.00,0.120000,,2013-02-28 03:11:00,
2013-02-27 19:31:00,46.0,44.0,30.33,ENE,77,2.0,5.0,92,-99.99,,,0.00,0.000000,,2013-02-28 03:31:00,
2013-02-27 19:41:00,46.0,44.0,30.33,ENE,77,2.0,5.0,92,-99.99,,,0.00,0.000000,,2013-02-28 03:41:00,
2013-02-27 19:52:00,46.0,44.0,30.33,ENE,77,2.0,5.0,92,-99.99,,,0.00,0.000000,,2013-02-28 03:52:00,
2013-02-27 20:01:00,46.0,44.0,30.33,ENE,77,2.0,5.0,92,-99.99,,,0.00,0.000000,,2013-02-28 04:01:00,
2013-02-27 20:11:00,46.0,44.0,30.33,ENE,77,2.0,5.0,92,-99.99,,,0.00,0.000000,,2013-02-28 04:11:00,
2013-02-27 20:42:00,45.0,44.0,30.32,ENE,61,2.0,4.0,96,-99.99,,,0.00,0.000000,,2013-02-28 04:42:00,
2013-02-27 20:52:00,45.0,44.0,30.32,ENE,61,2.0,4.0,96,-99.99,,,0.00,0.000000,,2013-02-28 04:52:00,
2013-02-27 21:01:00,45.0,44.0,30.32,ENE,61,2.0,4.0,96,-99.99,,,0.00,0.000000,,2013-02-28 05:01:00,
2013-02-27 21:11:00,45.0,44.0,30.32,ENE,61,2.0,4.0,96,-99.99,,,0.00,0.000000,,2013-02-28 05:11:00,
2013-02-27 21:42:00,45.0,44.0,30.33,ENE,60,1.0,3.0,96,-99.99,,,0.00,0.000000,,2013-02-28 05:42:00,
2013-02-27 21:52:00,45.0,44.0,30.33,ENE,60,1.0,3.0,96,-99.99,,,0.00,0.000000,,2013-02-28 05:52:00,
2013-02-27 22:01:00,45.0,44.0,30.33,ENE,60,1.0,3.0,96,-99.99,,,0.00,0.000000,,2013-02-28 06:01:00,
2013-02-27 22:11:00,45.0,44.0,30.33,ENE,60,1.0,3.0,96,-99.99,,,0.00,0.000000,,2013-02-28 06:11:00,
2013-02-27 22:42:00,44.0,44.0,30.34,SSE,157,2.0,6.0,96,-99.99,,,0.00,0.000000,,2013-02-28 06:42:00,
2013-02-27 22:52:00,44.0,44.0,30.34,SSE,157,2.0,6.0,96,-99.99,,,0.00,0.000000,,2013-02-28 06:52:00,
2013-02-27 23:01:00,44.0,44.0,30.34,SSE,157,2.0,6.0,96,-99.99,,,0.00,0.000000,,2013-02-28 07:01:00,
2013-02-27 23:11:00,44.0,44.0,30.34,SSE,157,2.0,6.0,96,-99.99,,,0.00,0.000000,,2013-02-28 07:11:00,
2013-02-27 23:41:00,45.0,44.0,30.33,ENE,74,1.0,2.0,96,-99.99,,,0.00,0.000000,,2013-02-28 07:41:00,
2013-02-27 23:52:00,45.0,44.0,30.33,ENE,74,1.0,2.0,96,-99.99,,,0.00,0.000000,,2013-02-28 07:52:00,